Tracking 30923 objects as of 1-Jul-2025
HD Live streaming from Space Station
objects crossing your sky now

STARLINK-31844

Track STARLINK-31844 now!
10-day predictions
STARLINK-31844 is classified as:


NORAD ID: 60583
Int'l Code: 2024-150A
Perigee: 481.7 km
Apogee: 482.9 km
Inclination: 53.2 °
Period: 94.1 minutes
Semi major axis: 6853 km
RCS: Unknown
Launch date: August 20, 2024
Source: United States (US)
Launch site: AIR FORCE EASTERN TEST RANGE (AFETR)
Your satellite tracking list
ARIANE 2 DEB
Track 1 satellite(s)




NASA's NSSDC Master Catalog

Two Line Element Set (TLE):
1 60583U 24150A   25181.62687017 -.00003145  00000-0 -94066-4 0  9992
2 60583  53.1600  37.5359 0000909  80.9882 279.1222 15.30211050 49459
Source of the keplerian elements: AFSPC